Regional Weather Roundup
Issued by NWS

Home | Current Version | Previous Version | Text Only | Print | Product List | Glossary Off
Versions: 1 2 3 4 5 6 7 8 9 10 11 12 13 14 15 16 17 18 19 20 21 22 23 24 25 26 27 28 29 30 31 32 33 34 35 36 37 38 39 40 41 42 43 44 45 46 47 48 49 50

350
ASUS43 KLOT 251108
RWRIL

ILLINOIS REGIONAL WEATHER ROUNDUP
NATIONAL WEATHER SERVICE CHICAGO/ROMEOVILLE IL
600 AM CDT SUN SEP 25 2016

NOTE: "FAIR" INDICATES FEW OR NO CLOUDS BELOW 12,000 FEET WITH NO
SIGNIFICANT WEATHER AND/OR OBSTRUCTIONS TO VISIBILITY.

* THESE STATIONS ARE NOT UNDER NWS QUALITY CONTROL. THEY ALSO MAY NOT
  REPORT WEATHER SUCH AS PRECIPITATION OR FOG.

ILZ001-002-007-009-015-016-024-251200-
NORTHWEST ILLINOIS

CITY           SKY/WX    TMP DP  RH WIND       PRES   REMARKS
MOLINE         CLEAR     69  65  86 E5        30.01S
STERLING*      CLOUDY    67  65  93 SE7       30.04F
SAVANNA*       CLOUDY    68  65  90 SE7       30.02F
$$

ILZ003-004-008-010-011-017-018-251200-
NORTH CENTRAL ILLINOIS

CITY           SKY/WX    TMP DP  RH WIND       PRES   REMARKS
ROCKFORD       MOCLDY    67  63  87 S9        30.07S
FREEPORT*      CLOUDY    65  64  95 SE8       30.06F FOG
ROCHELLE*      CLEAR     65  64  94 S9        30.07F
DE KALB*       CLEAR     64  62  94 SE8       30.09S
$$

ILZ005-006-012>014-019>023-251200-
NORTHEAST ILLINOIS

CITY           SKY/WX    TMP DP  RH WIND       PRES   REMARKS
CHICAGO-OHARE  PTCLDY    64  59  83 SE8       30.09S
CHICAGO-MIDWAY CLEAR     66  57  72 SE7       30.10S
AURORA         CLEAR     65  61  87 SE7       30.09S
LANSING*       CLEAR     62  58  87 SE7       30.11F
JOLIET*        CLOUDY    65  61  87 SE6       30.10S
WAUKEGAN       MOCLDY    66  61  84 SE10      30.09S
DUPAGE AIRPORT CLEAR     64  59  83 SE7       30.09S
KANKAKEE*      CLEAR     63  60  91 CALM      30.11F
WHEELING       PTCLDY    64  59  83 S7        30.11R
MORRIS*        CLEAR     64  62  93 SE5       30.08S
ROMEOVILLE*    CLEAR     63  61  94 SE7       30.10S
NORTHERLY ISL    N/A     65  58  78 SE8         N/A
$$

LMZ740>746-251200-
SOUTHERN LAKE MICHIGAN

STATION/POSITION SKY/WX   TEMP    WIND        PRES    VSBY  WAVE
                          AIR SEA DIR/SP/G                  HT/PER
                          (F)     (DEG/KT/KT) (MB)    (MI)  (FT/S)
SOUTHERN BUOY              67 72  140/ 17/ 21 1019.1F         3/ 5
WILMETTE HARBOR            66 64  180/ 14/ 17   N/A           4/ 4
HARRISON CRIB              67     160/ 16/ 19   N/A
BURNHAM HARBOR             65     140/  6/ 10   N/A
CALUMET HARBOR             65     140/  6/ 12 1019.0F
BURNS HARBOR               64     150/ 12/ 22 1020.0S
MICHIGAN CITY              62     120/ 14/ 16   N/A
MICHIGAN CITY 6N           62 67  150/ 12/ 17   N/A           1/ 2
ST. JOSEPH                 62 68  130/ 14/ 17 1020.0F         2/ 2
$$

ILZ025>027-034>036-040-047-049-050-058-095>099-251200-
WEST-CENTRAL ILLINOIS

CITY           SKY/WX    TMP DP  RH WIND       PRES   REMARKS
QUINCY         CLOUDY    72  67  84 S6        30.02S
GALESBURG*     PTCLDY    66  64  93 E5        30.03S
MACOMB*        CLEAR     67  66  96 S6        30.05R FOG
JACKSONVILLE*  CLEAR     73  67  80 S5        30.04S
PITTSFIELD*    CLEAR     68  67  96 SE5       30.05S FOG
$$

ILZ028>032-037-038-041>044-048-051>054-059>061-251200-
CENTRAL ILLINOIS

CITY           SKY/WX    TMP DP  RH WIND       PRES   REMARKS
PONTIAC        CLEAR     65  65 100 SE5       30.09S FOG
BLOOMINGTON    CLEAR     68  66  93 SE9       30.09S
DECATUR        PTCLDY    66  64  93 E5        30.08S FOG
PEORIA         CLEAR     70  68  93 SE5       30.05S
LACON*         CLEAR     65  64  96 SE5       30.05S FOG
SPRINGFIELD    CLEAR     69  65  86 SE6       30.05S
TAYLORVILLE    CLEAR     67  65  94 SE5       30.07S
$$

ILZ033-039-045-046-055>057-062-063-251200-
EAST-CENTRAL ILLINOIS

CITY           SKY/WX    TMP DP  RH WIND       PRES   REMARKS
CHAMPAIGN      CLEAR     65  64  97 E7        30.10R FOG
RANTOUL*       CLEAR     66  65  96 E3        30.10S FOG
MATTOON        PTCLDY    69  66  90 SE6       30.08R FOG
PARIS*           N/A     65  65 100 CALM      30.11R FOG
$$

ILZ079-100>102-251200-
SOUTHWEST ILLINOIS

CITY           SKY/WX    TMP DP  RH WIND       PRES   REMARKS
ALTON          CLEAR     66  65  99 CALM      30.06R FOG
BELLEVILLE     CLEAR     66  66 100 CALM      30.05R FOG
CAHOKIA*       MOCLDY    69  66  90 CALM      30.04S
SPARTA*        PTCLDY    69  68  97 CALM      30.07R
$$

ILZ064>066-069>071-074>076-080>082-084>086-088>090-092>094-251200-
SOUTH-CENTRAL ILLINOIS

CITY           SKY/WX    TMP DP  RH WIND       PRES   REMARKS
CARBONDALE     FOG       65  65 100 CALM      30.06S VSB 1/4
CAIRO*         CLEAR     66  66 100 CALM      30.06R FOG
EFFINGHAM*     CLEAR     66  66 100 CALM      30.09S FOG
MARION         CLEAR     72  70  94 CALM      30.07S
MT. VERNON     CLEAR     64  59  82 CALM      30.07S
CENTRALIA*     CLEAR     66  66  99 CALM      30.06R FOG
SALEM*         CLEAR     67  65  93 CALM      30.07S FOG
METROPOLIS*    CLEAR     67  67  98 CALM      30.07S FOG
$$

ILZ067-068-072-073-078-083-087-091-251200-
SOUTHEAST ILLINOIS

CITY           SKY/WX    TMP DP  RH WIND       PRES   REMARKS
LAWRENCEVILLE  CLEAR     65  63  93 E5        30.08S FOG
FLORA*         CLEAR     67  67  97 CALM      30.08R FOG
FAIRFIELD*       N/A     66  66  99 CALM      30.06S
HARRISBURG*    CLEAR     66  66 100 CALM      30.07R FOG
ROBINSON*      FOG       60  60 100 CALM      30.10R VSB 1/4
CARMI*         CLEAR     64  64 100 CALM      30.07R FOG
$$

ABBREVIATIONS USED IN REMARKS
   TC - TEMPERATURE IN CELSIUS
  WCI - WIND CHILL INDEX
   HX - HEAT INDEX
  VSB - VISIBILITY
$$





USA.gov is the U.S. government's official web portal to all federal, state and local government web resources and services.